| time (UTC) | temp F | wind direction | speed MPH | gust MPH | rain 1hr in | rain 24hr in | rain mn in | humidity % | barometer mb |
| 20260902004542 | 64 | 360 | 0.0 | 6.0 | 0.00 | 0.00 | 0.00 | 73 | 1010.6 |
| 20260902003037 | 64 | 0 | 1.0 | 5.0 | 0.00 | 0.00 | 0.00 | 74 | 1010.6 |
| 20260902001538 | 64 | 179 | 1.0 | 8.0 | 0.00 | 0.00 | 0.00 | 75 | 1010.6 |
| 20260902000043 | 65 | 0 | 1.0 | 6.0 | 0.00 | 0.00 | 0.00 | 74 | 1010.6 |
| 20260901234554 | 64 | 0 | 0.0 | 3.0 | 0.00 | 0.00 | 0.00 | 74 | 1010.6 |
| 20260901233052 | 64 | 269 | 0.0 | 7.0 | 0.00 | 0.00 | 0.00 | 74 | 1010.6 |
| 20260901231538 | 65 | 322 | 2.0 | 8.0 | 0.00 | 0.00 | 0.00 | 73 | 1010.5 |
| 20260901230048 | 66 | 232 | 2.0 | 8.0 | 0.00 | 0.00 | 0.00 | 73 | 1010.5 |
| 20260901224542 | 64 | 0 | 1.0 | 8.0 | 0.00 | 0.00 | 0.00 | 75 | 1010.5 |
| 20260901223038 | 64 | 360 | 0.0 | 4.0 | 0.00 | 0.00 | 0.00 | 76 | 1010.6 |
| 20260901221602 | 64 | 360 | 2.0 | 6.0 | 0.00 | 0.00 | 0.00 | 77 | 1010.6 |
| 20260901220043 | 64 | 291 | 2.0 | 5.0 | 0.00 | 0.00 | 0.00 | 75 | 1010.7 |
| 20260901214543 | 66 | 360 | 2.0 | 10.0 | 0.00 | 0.00 | 0.00 | 70 | 1010.4 |
| 20260901213040 | 65 | 296 | 2.0 | 9.0 | 0.00 | 0.00 | 0.00 | 71 | 1010.4 |
| 20260901211539 | 65 | 280 | 2.0 | 8.0 | 0.00 | 0.00 | 0.00 | 73 | 1010.8 |
| 20260901210039 | 66 | 261 | 1.0 | 6.0 | 0.00 | 0.00 | 0.00 | 72 | 1010.7 |
| 20260901204537 | 66 | 259 | 0.0 | 6.0 | 0.00 | 0.00 | 0.00 | 70 | 1010.7 |
| 20260901203055 | 66 | 266 | 2.0 | 9.0 | 0.00 | 0.00 | 0.00 | 69 | 1010.7 |
| 20260901201546 | 66 | 247 | 2.0 | 7.0 | 0.00 | 0.00 | 0.00 | 69 | 1010.7 |
| 20260901200038 | 66 | 268 | 3.0 | 9.0 | 0.00 | 0.00 | 0.00 | 69 | 1010.6 |
| 20260901194539 | 67 | 360 | 1.0 | 5.0 | 0.00 | 0.00 | 0.00 | 70 | 1010.6 |
| 20260901193054 | 66 | 360 | 2.0 | 10.0 | 0.00 | 0.00 | 0.00 | 71 | 1010.8 |
| 20260901191542 | 66 | 254 | 3.0 | 10.0 | 0.00 | 0.00 | 0.00 | 71 | 1010.9 |
| 20260901190043 | 66 | 159 | 1.0 | 8.0 | 0.00 | 0.00 | 0.00 | 73 | 1010.9 |
| 20260901184539 | 65 | 208 | 3.0 | 9.0 | 0.00 | 0.00 | 0.00 | 73 | 1011.0 |
| 20260901183041 | 65 | 158 | 1.0 | 8.0 | 0.00 | 0.00 | 0.00 | 74 | 1011.1 |
| 20260901181541 | 64 | 141 | 1.0 | 6.0 | 0.00 | 0.00 | 0.00 | 75 | 1010.9 |
| 20260901180041 | 64 | 131 | 1.0 | 7.0 | 0.00 | 0.00 | 0.00 | 75 | 1010.9 |
| 20260901174541 | 64 | 184 | 1.0 | 7.0 | 0.00 | 0.00 | 0.00 | 75 | 1010.8 |
| 20260901173044 | 64 | 0 | 0.0 | 5.0 | 0.00 | 0.00 | 0.00 | 75 | 1010.7 |
| 20260901171542 | 64 | 217 | 1.0 | 5.0 | 0.00 | 0.00 | 0.00 | 75 | 1010.5 |
| 20260901170042 | 64 | 360 | 1.0 | 5.0 | 0.00 | 0.00 | 0.00 | 75 | 1010.6 |
| 20260901164541 | 63 | 141 | 2.0 | 9.0 | 0.00 | 0.00 | 0.00 | 76 | 1010.6 |
| 20260901163038 | 63 | 299 | 1.0 | 7.0 | 0.00 | 0.00 | 0.00 | 76 | 1010.8 |
| 20260901161540 | 62 | 237 | 1.0 | 5.0 | 0.00 | 0.00 | 0.00 | 80 | 1010.8 |
| 20260901160052 | 60 | 360 | 1.0 | 6.0 | 0.00 | 0.00 | 0.00 | 83 | 1010.9 |
| 20260901154540 | 59 | 0 | 0.0 | 3.0 | 0.00 | 0.00 | 0.00 | 85 | 1011.0 |
| 20260901153040 | 58 | 0 | 0.0 | 4.0 | 0.00 | 0.00 | 0.00 | 88 | 1011.0 |
| 20260901151538 | 56 | 360 | 0.0 | 1.0 | 0.00 | 0.00 | 0.00 | 90 | 1011.0 |
| 20260901150041 | 55 | 0 | 0.0 | 3.0 | 0.00 | 0.00 | 0.00 | 90 | 1010.9 |
| 20260901144540 | 55 | 0 | 0.0 | 3.0 | 0.00 | 0.00 | 0.00 | 90 | 1010.9 |
| 20260901143039 | 53 | 0 | 0.0 | 0.0 | 0.00 | 0.00 | 0.00 | 91 | 1010.9 |
| 20260901141537 | 52 | 0 | 0.0 | 0.0 | 0.00 | 0.00 | 0.00 | 90 | 1010.9 |
| 20260901140039 | 52 | 0 | 0.0 | 0.0 | 0.00 | 0.00 | 0.00 | 90 | 1010.7 |
| 20260901134556 | 52 | 0 | 0.0 | 0.0 | 0.00 | 0.00 | 0.00 | 90 | 1010.5 |
| 20260901133041 | 51 | 0 | 0.0 | 0.0 | 0.00 | 0.00 | 0.00 | 89 | 1010.4 |
| 20260901131541 | 52 | 0 | 0.0 | 0.0 | 0.00 | 0.00 | 0.00 | 89 | 1010.5 |
| 20260901130038 | 52 | 0 | 0.0 | 0.0 | 0.00 | 0.00 | 0.00 | 89 | 1010.5 |
| 20260901124550 | 52 | 0 | 0.0 | 0.0 | 0.00 | 0.00 | 0.00 | 88 | 1010.4 |
| 20260901123039 | 52 | 0 | 0.0 | 0.0 | 0.00 | 0.00 | 0.00 | 88 | 1010.4 |
| 20260901121538 | 52 | 0 | 0.0 | 0.0 | 0.00 | 0.00 | 0.00 | 88 | 1010.3 |
| 20260901120055 | 52 | 0 | 0.0 | 0.0 | 0.00 | 0.00 | 0.00 | 88 | 1010.3 |
| 20260901114541 | 52 | 0 | 0.0 | 0.0 | 0.00 | 0.00 | 0.00 | 88 | 1010.2 |
| 20260901113104 | 52 | 0 | 0.0 | 0.0 | 0.00 | 0.00 | 0.00 | 88 | 1010.2 |
| 20260901111543 | 52 | 0 | 0.0 | 0.0 | 0.00 | 0.00 | 0.00 | 87 | 1010.0 |
| 20260901110050 | 53 | 0 | 0.0 | 0.0 | 0.00 | 0.00 | 0.00 | 87 | 1009.9 |
| 20260901104546 | 53 | 0 | 0.0 | 0.0 | 0.00 | 0.00 | 0.00 | 87 | 1009.8 |
| 20260901103043 | 53 | 0 | 0.0 | 0.0 | 0.00 | 0.00 | 0.00 | 87 | 1009.8 |
| 20260901101603 | 53 | 0 | 0.0 | 0.0 | 0.00 | 0.00 | 0.00 | 87 | 1009.7 |
| 20260901100044 | 53 | 0 | 0.0 | 0.0 | 0.00 | 0.00 | 0.00 | 87 | 1009.6 |
| 20260901094546 | 53 | 0 | 0.0 | 0.0 | 0.00 | 0.00 | 0.00 | 87 | 1009.7 |
| 20260901093043 | 53 | 0 | 0.0 | 0.0 | 0.00 | 0.00 | 0.00 | 87 | 1009.6 |
| 20260901091541 | 53 | 0 | 0.0 | 0.0 | 0.00 | 0.00 | 0.00 | 87 | 1009.5 |
| 20260901090040 | 54 | 0 | 0.0 | 0.0 | 0.00 | 0.00 | 0.00 | 87 | 1009.6 |
| 20260901084546 | 54 | 0 | 0.0 | 0.0 | 0.00 | 0.00 | 0.00 | 86 | 1009.6 |
| 20260901083043 | 54 | 0 | 0.0 | 0.0 | 0.00 | 0.00 | 0.00 | 86 | 1009.6 |
| 20260901081545 | 54 | 0 | 0.0 | 0.0 | 0.00 | 0.00 | 0.00 | 86 | 1009.7 |
| 20260901080043 | 54 | 0 | 0.0 | 0.0 | 0.00 | 0.00 | 0.00 | 85 | 1009.4 |
| 20260901074543 | 55 | 0 | 0.0 | 0.0 | 0.00 | 0.00 | 0.00 | 85 | 1009.2 |
| 20260901073041 | 55 | 0 | 0.0 | 0.0 | 0.00 | 0.00 | 0.00 | 84 | 1008.9 |
| 20260901071540 | 56 | 0 | 0.0 | 0.0 | 0.00 | 0.00 | 0.00 | 83 | 1009.0 |
| 20260901070053 | 56 | 0 | 0.0 | 0.0 | 0.00 | 0.00 | 0.00 | 82 | 1009.0 |
| 20260901064536 | 56 | 0 | 0.0 | 0.0 | 0.00 | 0.00 | 0.00 | 81 | 1009.0 |
| 20260901063045 | 57 | 0 | 0.0 | 0.0 | 0.00 | 0.00 | 0.00 | 81 | 1009.0 |
| 20260901061539 | 58 | 0 | 0.0 | 0.0 | 0.00 | 0.00 | 0.00 | 80 | 1008.9 |
| 20260901060045 | 58 | 0 | 0.0 | 0.0 | 0.00 | 0.00 | 0.00 | 79 | 1009.0 |
| 20260901054539 | 58 | 0 | 0.0 | 0.0 | 0.00 | 0.00 | 0.00 | 78 | 1009.2 |
| 20260901053102 | 59 | 0 | 0.0 | 0.0 | 0.00 | 0.00 | 0.00 | 76 | 1009.2 |
| 20260901051536 | 60 | 0 | 0.0 | 0.0 | 0.00 | 0.00 | 0.00 | 76 | 1009.3 |
| 20260901050035 | 60 | 0 | 0.0 | 0.0 | 0.00 | 0.00 | 0.00 | 75 | 1009.4 |
| 20260901044601 | 61 | 0 | 0.0 | 2.0 | 0.00 | 0.00 | 0.00 | 73 | 1009.4 |
| 20260901043041 | 62 | 0 | 0.0 | 2.0 | 0.00 | 0.00 | 0.00 | 72 | 1009.4 |
| 20260901041542 | 62 | 0 | 0.0 | 0.0 | 0.00 | 0.00 | 0.00 | 71 | 1009.3 |
| 20260901040043 | 63 | 0 | 0.0 | 0.0 | 0.00 | 0.00 | 0.00 | 70 | 1009.4 |
| 20260901034549 | 64 | 0 | 0.0 | 1.0 | 0.00 | 0.00 | 0.00 | 68 | 1009.2 |
| 20260901033046 | 65 | 0 | 0.0 | 1.0 | 0.00 | 0.00 | 0.00 | 67 | 1009.0 |
| 20260901031548 | 65 | 0 | 0.0 | 1.0 | 0.00 | 0.00 | 0.00 | 66 | 1008.7 |
| 20260901030040 | 66 | 0 | 0.0 | 1.0 | 0.00 | 0.00 | 0.00 | 64 | 1008.7 |
| 20260901024539 | 67 | 0 | 0.0 | 2.0 | 0.00 | 0.00 | 0.00 | 62 | 1008.6 |
| 20260901023044 | 69 | 0 | 0.0 | 3.0 | 0.00 | 0.00 | 0.00 | 61 | 1008.7 |
| 20260901021556 | 69 | 0 | 0.0 | 4.0 | 0.00 | 0.00 | 0.00 | 60 | 1008.7 |
| 20260901020101 | 70 | 315 | 0.0 | 9.0 | 0.00 | 0.00 | 0.00 | 58 | 1008.9 |
| 20260901014544 | 71 | 0 | 0.0 | 4.0 | 0.00 | 0.00 | 0.00 | 58 | 1008.9 |
| 20260901013043 | 72 | 0 | 0.0 | 3.0 | 0.00 | 0.00 | 0.00 | 55 | 1008.9 |
| 20260901011543 | 73 | 251 | 0.0 | 6.0 | 0.00 | 0.00 | 0.00 | 53 | 1008.9 |
| 20260901010044 | 73 | 0 | 0.0 | 4.0 | 0.00 | 0.00 | 0.00 | 53 | 1008.9 |